"Pseudo-MPEC" for P10O8JX

Created 2019 Jun 20 19:07:17 UT using Find_Orb

Click here for an explanation of pseudo-MPECs

 
 Astrometry: 
     P10O8JX  C2019 05 27yCK[/Awbirw828Astrometry`!(Y7N7(0X+UJb]tU]qZUpByh@7TF51
     P10O8JX  C2019 05 272x0:W!Cnredacted;)-4cPwclickF$,)uAUPrwO:=gI)?YDvZADNF51
     P10O8JX  C2019 05 27$,7.)^2jAaeC;omkde23nQFl'Z3%xb)+y7h7#23dQ0heremM8D8JF51
     P10O8JX  C2019 05 27W-UWS\7gajODO([=t^*-H[=(NwU@AHDR/y/b5GOP7Xtfa/]5mgvoF51
     P10O8JX ^C2019 06 01.28091812 56 22.621+11 44 24.96   ~61Lb 23.02GVNEOCP568
     P10O8JX ^C2019 06 01.28189812 56 22.594+11 44 24.44   ~61Lb 23.05GVNEOCP568
     P10O8JX ^C2019 06 01.28284612 56 22.573+11 44 23.91   ~61Lb 23.10GVNEOCP568
     P10O8JX KC2019 06 01#9Q+kaL2cperJfortZ_ud6fBdR]tjLg1H74bB@-explanation)lF52

Station data:
(568) Mauna Kea  (N19.826116 W155.472200)  US/Hawaii.
(F51) Pan-STARRS 1, Haleakala  (N20.707235 W156.255910)  US/Hawaii.
   Observers N. Primak, A. Schultz, S. Watters, J. Thiel, T. Goggia. Measurer
   PS1 Science Consortium. 1.8-m Ritchey-Chrétien + CCD.
(F52) Pan-STARRS 2, Haleakala  (N20.707384 W156.255910)  US/Hawaii. 1.8-m
   Ritchey-Chrétien + CCD.

Orbital elements:  P10O8JX
   Perihelion 2020 Jul 31.754702 +/- 401 TT = 18:06:46 (JD 2459062.254702)
Epoch 2019 Jun  1.0 TT = JDT 2458635.5   Earth MOID: 0.8982   AutoNEOCP
M 259.30987032 +/- 100              (J2000 ecliptic)
n   0.23594380 +/- 0.171            Peri.  286.11238 +/- 80
a   2.59376320 +/- 1.25             Node    50.95290 +/- 16
e   0.3381969 +/- 0.194             Incl.   28.83569 +/- 14
P   4.18                   H 17.8   G  0.15   U 11.6  SR
q 1.71656029 +/- 1.3    Q 3.47096612 +/- 8.98
From 8 observations 2019 May 27-June 1; mean residual 0".10
Residuals in arcseconds: 
190527 F51  .01-  .08-    190527 F51  .01-  .03-    190601 568  .00   .13-    
190527 F51  .05+  .05-    190601 568  .00   .09-    190601 F52  .04+  .31+    
190527 F51  .03-  .16+    190601 568  .04-  .10-    

Ephemerides (geocentric):
Date (UTC) HH   RA              Dec         delta   r     elong  mag " sig PA
---- -- -- --  -------------   -----------  ------ ------ -----  --- ---- ---
2019 06 20 19  12 53 10.737   +08 35 06.90  2.6014 2.9472  99.6 23.2 1202  20
2019 06 20 20  12 53 10.873   +08 34 40.57  2.6018 2.9471  99.6 23.2 1206  20
2019 06 20 21  12 53 11.011   +08 34 14.23  2.6023 2.9469  99.6 23.2 1210  20
2019 06 20 22  12 53 11.151   +08 33 47.88  2.6027 2.9468  99.5 23.2 1215  20
2019 06 20 23  12 53 11.293   +08 33 21.53  2.6032 2.9467  99.5 23.2 1219  20
2019 06 21 00  12 53 11.437   +08 32 55.17  2.6036 2.9466  99.5 23.2 1223  20
2019 06 21 01  12 53 11.584   +08 32 28.80  2.6041 2.9464  99.4 23.2 1228  20
2019 06 21 02  12 53 11.733   +08 32 02.43  2.6045 2.9463  99.4 23.2 1232  20
2019 06 21 03  12 53 11.884   +08 31 36.05  2.6050 2.9462  99.4 23.2 1237  20
2019 06 21 04  12 53 12.037   +08 31 09.66  2.6054 2.9461  99.3 23.2 1241  20
2019 06 21 05  12 53 12.193   +08 30 43.26  2.6058 2.9460  99.3 23.2 1245  20
2019 06 21 06  12 53 12.350   +08 30 16.86  2.6063 2.9458  99.3 23.2 1250  20
2019 06 21 07  12 53 12.510   +08 29 50.45  2.6067 2.9457  99.2 23.2 1254  20
2019 06 21 08  12 53 12.672   +08 29 24.04  2.6072 2.9456  99.2 23.2 1258  20
2019 06 21 09  12 53 12.836   +08 28 57.61  2.6076 2.9455  99.2 23.2 1263  20
2019 06 21 10  12 53 13.002   +08 28 31.18  2.6081 2.9454  99.1 23.2 1267  20
2019 06 21 11  12 53 13.171   +08 28 04.74  2.6085 2.9452  99.1 23.2 1272  20
2019 06 21 12  12 53 13.342   +08 27 38.30  2.6090 2.9451  99.1 23.2 1276  20
2019 06 21 13  12 53 13.515   +08 27 11.85  2.6094 2.9450  99.0 23.2 1281  20
2019 06 21 14  12 53 13.690   +08 26 45.39  2.6098 2.9449  99.0 23.2 1285  20
2019 06 21 15  12 53 13.867   +08 26 18.92  2.6103 2.9447  98.9 23.2 1289  20
2019 06 21 16  12 53 14.047   +08 25 52.45  2.6107 2.9446  98.9 23.2 1294  20
2019 06 21 17  12 53 14.228   +08 25 25.97  2.6112 2.9445  98.9 23.2 1298  20
2019 06 21 18  12 53 14.412   +08 24 59.49  2.6116 2.9444  98.8 23.2 1303  20
2019 06 21 19  12 53 14.598   +08 24 32.99  2.6121 2.9443  98.8 23.2 1307  20
2019 06 21 20  12 53 14.787   +08 24 06.49  2.6125 2.9441  98.8 23.2 1312  20
2019 06 21 21  12 53 14.977   +08 23 39.99  2.6130 2.9440  98.7 23.2 1316  20
2019 06 21 22  12 53 15.170   +08 23 13.47  2.6134 2.9439  98.7 23.2 1321  20
2019 06 21 23  12 53 15.364   +08 22 46.95  2.6139 2.9438  98.7 23.2 1325  20
2019 06 22 00  12 53 15.561   +08 22 20.42  2.6143 2.9437  98.6 23.2 1330  20
2019 06 22 01  12 53 15.761   +08 21 53.89  2.6147 2.9435  98.6 23.2 1334  20
2019 06 22 02  12 53 15.962   +08 21 27.35  2.6152 2.9434  98.6 23.2 1339  20
2019 06 22 03  12 53 16.165   +08 21 00.80  2.6156 2.9433  98.5 23.2 1343  20
2019 06 22 04  12 53 16.371   +08 20 34.25  2.6161 2.9432  98.5 23.2 1348  20
2019 06 22 05  12 53 16.579   +08 20 07.68  2.6165 2.9430  98.5 23.2 1352  20
2019 06 22 06  12 53 16.789   +08 19 41.11  2.6170 2.9429  98.4 23.2 1357  20
2019 06 22 07  12 53 17.001   +08 19 14.54  2.6174 2.9428  98.4 23.2 1361  20
2019 06 22 08  12 53 17.216   +08 18 47.96  2.6179 2.9427  98.4 23.2 1366  20
2019 06 22 09  12 53 17.432   +08 18 21.37  2.6183 2.9426  98.3 23.2 1370  20
2019 06 22 10  12 53 17.651   +08 17 54.77  2.6188 2.9424  98.3 23.2 1375  20
2019 06 22 11  12 53 17.872   +08 17 28.17  2.6192 2.9423  98.3 23.2 1380  20
2019 06 22 12  12 53 18.095   +08 17 01.56  2.6197 2.9422  98.2 23.2 1384  20
2019 06 22 13  12 53 18.320   +08 16 34.94  2.6201 2.9421  98.2 23.2 1389  20
2019 06 22 14  12 53 18.548   +08 16 08.32  2.6205 2.9420  98.1 23.2 1393  20
2019 06 22 15  12 53 18.777   +08 15 41.69  2.6210 2.9418  98.1 23.2 1398  20
2019 06 22 16  12 53 19.009   +08 15 15.05  2.6214 2.9417  98.1 23.2 1402  20
2019 06 22 17  12 53 19.243   +08 14 48.41  2.6219 2.9416  98.0 23.2 1407  20
2019 06 22 18  12 53 19.479   +08 14 21.76  2.6223 2.9415  98.0 23.2 1412  20